Starlink 11431

operational
NORAD ID: 62890 Int'l Des: 2025-024 Owner: SPXS Country: US Constellation: starlink
LEOCIRCULAR

Starlink 11431について

説明を読み込み中...

リアルタイム位置

3D地球を読み込み中...

次回通過

高度履歴

Altitude vs Time

uPlot chart will show altitude changes over time

軌道要素

1 62890U 25024M 25259.58337963 .00039931 00000-0 31364-3 0 9990
2 62890 43.0009 151.3568 0001741 269.9918 289.6645 15.70805057 6047
Epoch: Sep 16, 2025 • Age: 11 hours

現在のステータス

高度 357.1 km
速度 7.70 km/s
衛星直下点 -6.15°S, 30.49°W
打ち上げ日 Feb 4, 2025
運用期間 0.6 years
タイプ internet

技術仕様

分類 Payload
質量 960.00 kg
乾燥質量 910.00 kg
総質量 960.00 kg
長さ 0.30 m
直径 4.10 m
スパン 29.00 m
形状 Box + pan
製造者 SPXS
バスタイプ Starlink V2MD
フェーズステータス In Orbit
所有者/国 SPXS/US

大規模コンステレーション

Loading constellations...